Regional Weather Roundup
Issued by NWS Bismarck, ND

Home | Current Version | Previous Version | Text Only | Print | Product List | Glossary On
Versions: 1 2 3 4 5 6 7 8 9 10 11 12 13 14 15 16 17 18 19 20 21 22 23 24 25 26 27 28 29 30 31 32 33 34 35 36 37 38 39 40 41 42 43 44 45 46 47 48 49 50
000
ASUS43 KBIS 012320
RWRBIS

NWR BROADCAST TEXT
NATIONAL WEATHER SERVICE BISMARCK ND
600 PM CDT MON SEP 01 2014

NOTE: "FAIR" INDICATES FEW OR NO CLOUDS BELOW 12,000 FEET WITH NO
SIGNIFICANT WEATHER AND/OR OBSTRUCTIONS TO VISIBILITY.


CITY           SKY/WX    TMP DP  RH WIND       PRES   REMARKS
WILLISTON      CLOUDY    65  44  46 W20       29.83R
MINOT          MOSUNNY   73  43  33 W7        29.78S
MINOT AFB      SUNNY     72  44  35 W14       29.77S
BISMARCK       SUNNY     73  44  35 NW16      29.83R
DICKINSON      PTSUNNY   68  44  42 W10       29.86S
GARRISON         N/A     70  47  43 NW7       29.80F
HETTINGER ARPT PTSUNNY   64  49  57 N9        29.90R
JAMESTOWN      SUNNY     71  51  49 NW16G23   29.77R
BEACH            N/A     64  46  52 W8        29.88S
CARRINGTON     FAIR      68  50  52 NW10      29.79S
CROSBY         FAIR      68  37  32 W10G16    29.80S
HARVEY         FAIR      72  45  37 NW14      29.78S
HAZEN          FAIR      70  45  40 NW7       29.83S
LINTON         FAIR      70  48  46 N9        29.83S
MANDAN         FAIR      68  45  42 NW8       29.84S
OAKES            N/A     73  55  53 NW15      29.77S
RUGBY          FAIR      68  48  49 W10       29.77S
STANLEY        FAIR      70  43  37 NW13      29.81S
TIOGA          MOCLDY    70  41  35 NW10      29.85S
WATFORD CITY   FAIR      66  41  39 W7        29.82R
$$

CITY           SKY/WX    TMP DP  RH WIND       PRES   REMARKS
GRAND FORKS    PTSUNNY   71  57  61 N8        29.73R
GRAND FORKS AF MOSUNNY   70  53  54 N6        29.74R
DEVILS LAKE    MOSUNNY   72  52  49 NW10      29.74S
FARGO          PTSUNNY   69  55  60 NE9       29.71R
CANDO          TSTM      59  50  72 NE7       29.76R
CAVALIER       FAIR      68  55  64 SW7       29.70F
GRAFTON        FAIR      66  54  63 SW7       29.71F
GWINNER        CLEAR     73  54  49 NW14      29.77R
LANGDON        FAIR      66  48  52 W9        29.73S
ROLLA          FAIR      66  45  45 NW10G18   29.76S
WALHALLA         N/A     72  48  43 NW9       29.70S
$$

CITY           SKY/WX    TMP DP  RH WIND       PRES   REMARKS
ABERDEEN       PTSUNNY   72  57  59 W6        29.78R
MOBRIDGE       MOSUNNY   74  50  42 NW8       29.80R
BUFFALO          N/A     68  45  43 N9        29.84S
RAPID CITY     PTSUNNY   66  49  54 NW10      29.95S
GLASGOW        CLOUDY    63  48  58 SW20      29.85R
SIDNEY         PTSUNNY   66  46  48 NW6       29.86R
WOLF POINT     MOSUNNY   73  44  35 SW13G20   29.83S
GLENDIVE       CLOUDY    66  50  55 W3        29.88S
MILES CITY     PTSUNNY   71  38  29 NW20      29.87S
BAKER          MOSUNNY   68  47  46 S7        29.90F
$$

CITY           SKY/WX    TMP DP  RH WIND       PRES   REMARKS
BILLINGS       MOSUNNY   73  34  23 NW15      29.93F
GREAT FALLS    PTSUNNY   70  34  26 W18G31    29.90F
REGINA         MOSUNNY   68  43  40 NW17      29.78S
ESTEVAN        MOSUNNY   70  43  37 NW13      29.79R
$$




USA.gov is the U.S. government's official web portal to all federal, state and local government web resources and services.